Time,TemperatureF,DewpointF,PressureIn,WindDirection,WindDirectionDegrees,WindSpeedMPH,WindSpeedGustMPH,Humidity,HourlyPrecipIn,Conditions,Clouds,dailyrainin,SoftwareType,DateUTC
2013-05-28 00:03:00,67.0,61.0,30.09,SSW,207,0.0,2.0,80,0.00,,,0.00,,2013-05-28 04:03:00,
2013-05-28 00:13:00,67.0,61.0,30.09,South,180,1.0,0.0,81,0.00,,,0.00,,2013-05-28 04:13:00,
2013-05-28 00:22:00,67.0,61.0,30.09,South,180,1.0,0.0,81,0.00,,,0.00,,2013-05-28 04:22:00,
2013-05-28 00:33:00,67.0,61.0,30.09,South,181,2.0,2.0,80,0.00,,,0.00,,2013-05-28 04:33:00,
2013-05-28 00:43:00,67.0,61.0,30.09,South,181,2.0,2.0,80,0.00,,,0.00,,2013-05-28 04:43:00,
2013-05-28 00:52:00,67.0,60.0,30.09,SSW,195,0.0,2.0,79,0.00,,,0.00,,2013-05-28 04:52:00,
2013-05-28 01:02:00,67.0,60.0,30.09,SW,221,0.0,0.0,79,0.00,,,0.00,,2013-05-28 05:02:00,
2013-05-28 01:12:00,67.0,60.0,30.09,SW,221,0.0,0.0,79,0.00,,,0.00,,2013-05-28 05:12:00,
2013-05-28 01:22:00,67.0,60.0,30.08,South,170,1.0,0.0,79,0.00,,,0.00,,2013-05-28 05:22:00,
2013-05-28 01:33:00,67.0,60.0,30.08,SSW,211,0.0,0.0,79,0.00,,,0.00,,2013-05-28 05:33:00,
2013-05-28 01:42:00,67.0,60.0,30.08,SSW,211,0.0,0.0,79,0.00,,,0.00,,2013-05-28 05:42:00,
2013-05-28 01:52:00,66.0,59.0,30.08,WSW,246,2.0,2.0,79,0.00,,,0.00,,2013-05-28 05:52:00,
2013-05-28 02:02:00,67.0,60.0,30.08,SW,225,0.0,0.0,78,0.00,,,0.00,,2013-05-28 06:02:00,
2013-05-28 02:12:00,67.0,60.0,30.08,SW,225,0.0,0.0,78,0.00,,,0.00,,2013-05-28 06:12:00,
2013-05-28 02:22:00,67.0,60.0,30.07,SW,224,0.0,0.0,78,0.00,,,0.00,,2013-05-28 06:22:00,
2013-05-28 02:32:00,67.0,59.0,30.07,SSW,208,0.0,0.0,76,0.00,,,0.00,,2013-05-28 06:32:00,
2013-05-28 02:42:00,67.0,59.0,30.07,SSW,208,0.0,0.0,76,0.00,,,0.00,,2013-05-28 06:42:00,
2013-05-28 02:52:00,67.0,60.0,30.05,SE,127,0.0,0.0,77,0.00,,,0.00,,2013-05-28 06:52:00,
2013-05-28 03:01:00,67.0,60.0,30.05,South,176,1.0,2.0,79,0.00,,,0.00,,2013-05-28 07:01:00,
2013-05-28 03:11:00,66.0,59.0,30.05,SSE,167,0.0,0.0,79,0.00,,,0.00,,2013-05-28 07:11:00,
2013-05-28 03:21:00,66.0,59.0,30.05,SSE,167,0.0,0.0,79,0.00,,,0.00,,2013-05-28 07:21:00,
2013-05-28 03:32:00,66.0,59.0,30.06,SSE,165,0.0,0.0,77,0.00,,,0.00,,2013-05-28 07:32:00,
2013-05-28 03:42:00,66.0,59.0,30.06,SSE,165,0.0,0.0,77,0.00,,,0.00,,2013-05-28 07:42:00,
2013-05-28 03:52:00,66.0,59.0,30.05,South,176,0.0,0.0,78,0.00,,,0.00,,2013-05-28 07:52:00,
2013-05-28 04:02:00,65.0,58.0,30.05,SSE,158,0.0,0.0,79,0.00,,,0.00,,2013-05-28 08:02:00,
2013-05-28 04:12:00,65.0,58.0,30.05,SSE,158,0.0,0.0,79,0.00,,,0.00,,2013-05-28 08:12:00,
2013-05-28 04:22:00,66.0,59.0,30.06,SSE,167,0.0,0.0,78,0.00,,,0.00,,2013-05-28 08:22:00,
2013-05-28 04:32:00,65.0,58.0,30.07,SSE,155,0.0,1.0,79,0.00,,,0.00,,2013-05-28 08:32:00,
2013-05-28 04:42:00,65.0,58.0,30.07,SSE,155,0.0,1.0,79,0.00,,,0.00,,2013-05-28 08:42:00,
2013-05-28 04:52:00,65.0,59.0,30.07,South,173,0.0,0.0,80,0.00,,,0.00,,2013-05-28 08:52:00,
2013-05-28 05:01:00,65.0,59.0,30.07,SE,125,0.0,0.0,80,0.00,,,0.00,,2013-05-28 09:01:00,
2013-05-28 05:11:00,65.0,59.0,30.08,SSE,150,0.0,0.0,80,0.00,,,0.00,,2013-05-28 09:11:00,
2013-05-28 05:21:00,65.0,59.0,30.08,SSE,150,0.0,0.0,80,0.00,,,0.00,,2013-05-28 09:21:00,
2013-05-28 05:33:00,65.0,58.0,30.08,SSE,150,0.0,0.0,79,0.00,,,0.00,,2013-05-28 09:33:00,
2013-05-28 05:43:00,65.0,58.0,30.08,SSE,150,0.0,0.0,79,0.00,,,0.00,,2013-05-28 09:43:00,
2013-05-28 05:54:00,65.0,59.0,30.08,SSW,204,0.0,1.0,80,0.00,,,0.00,,2013-05-28 09:54:00,
2013-05-28 06:03:00,65.0,59.0,30.09,South,190,0.0,0.0,80,0.00,,,0.00,,2013-05-28 10:03:00,
2013-05-28 06:12:00,65.0,59.0,30.09,South,190,0.0,0.0,80,0.00,,,0.00,,2013-05-28 10:12:00,
2013-05-28 06:23:00,65.0,59.0,30.09,South,190,2.0,0.0,80,0.00,,,0.00,,2013-05-28 10:23:00,
2013-05-28 06:32:00,65.0,59.0,30.09,SSW,194,0.0,0.0,80,0.00,,,0.00,,2013-05-28 10:32:00,
2013-05-28 06:42:00,65.0,59.0,30.09,SSW,194,0.0,0.0,80,0.00,,,0.00,,2013-05-28 10:42:00,
2013-05-28 06:53:00,65.0,59.0,30.10,South,169,0.0,0.0,80,0.00,,,0.00,,2013-05-28 10:53:00,
2013-05-28 07:02:00,65.0,59.0,30.10,South,187,1.0,0.0,81,0.00,,,0.00,,2013-05-28 11:02:00,
2013-05-28 07:11:00,65.0,59.0,30.10,South,187,1.0,0.0,81,0.00,,,0.00,,2013-05-28 11:11:00,
2013-05-28 07:22:00,65.0,60.0,30.10,South,173,1.0,0.0,83,0.00,,,0.00,,2013-05-28 11:22:00,
2013-05-28 07:32:00,65.0,60.0,30.10,South,177,1.0,0.0,85,0.00,,,0.00,,2013-05-28 11:32:00,
2013-05-28 07:42:00,65.0,60.0,30.10,South,177,1.0,0.0,85,0.00,,,0.00,,2013-05-28 11:42:00,
2013-05-28 07:52:00,65.0,60.0,30.10,South,169,0.0,0.0,85,0.00,,,0.00,,2013-05-28 11:52:00,
2013-05-28 08:01:00,66.0,61.0,30.11,South,187,0.0,3.0,84,0.00,,,0.00,,2013-05-28 12:01:00,
2013-05-28 08:11:00,66.0,61.0,30.11,South,187,0.0,3.0,84,0.00,,,0.00,,2013-05-28 12:11:00,
2013-05-28 08:21:00,66.0,61.0,30.11,SSE,153,0.0,0.0,84,0.00,,,0.00,,2013-05-28 12:21:00,
2013-05-28 08:32:00,66.0,62.0,30.12,South,183,1.0,0.0,86,0.00,,,0.00,,2013-05-28 12:32:00,
2013-05-28 08:42:00,66.0,62.0,30.12,South,183,1.0,0.0,86,0.00,,,0.00,,2013-05-28 12:42:00,
2013-05-28 08:52:00,66.0,62.0,30.12,SSE,156,0.0,0.0,87,0.00,,,0.00,,2013-05-28 12:52:00,
2013-05-28 09:01:00,67.0,62.0,30.12,South,186,1.0,2.0,84,0.00,,,0.00,,2013-05-28 13:01:00,
2013-05-28 09:11:00,67.0,62.0,30.12,South,186,1.0,2.0,84,0.00,,,0.00,,2013-05-28 13:11:00,
2013-05-28 09:21:00,68.0,63.0,30.13,SE,143,0.0,0.0,84,0.00,,,0.00,,2013-05-28 13:21:00,
2013-05-28 09:32:00,68.0,63.0,30.13,SSW,193,0.0,2.0,85,0.00,,,0.00,,2013-05-28 13:32:00,
2013-05-28 09:42:00,68.0,63.0,30.13,SSW,193,0.0,2.0,85,0.00,,,0.00,,2013-05-28 13:42:00,
2013-05-28 09:52:00,69.0,64.0,30.13,South,176,1.0,1.0,85,0.00,,,0.00,,2013-05-28 13:52:00,
2013-05-28 10:02:00,70.0,64.0,30.13,SSW,193,1.0,1.0,81,0.00,,,0.00,,2013-05-28 14:02:00,
2013-05-28 10:12:00,70.0,64.0,30.13,SSW,193,1.0,1.0,81,0.00,,,0.00,,2013-05-28 14:12:00,
2013-05-28 10:21:00,72.0,65.0,30.14,South,183,1.0,2.0,80,0.00,,,0.00,,2013-05-28 14:21:00,
2013-05-28 10:32:00,73.0,65.0,30.14,SSE,155,2.0,0.0,76,0.00,,,0.00,,2013-05-28 14:32:00,
2013-05-28 10:42:00,73.0,65.0,30.14,SSE,155,2.0,0.0,76,0.00,,,0.00,,2013-05-28 14:42:00,
2013-05-28 10:52:00,74.0,64.0,30.14,SSW,211,2.0,2.0,72,0.00,,,0.00,,2013-05-28 14:52:00,
2013-05-28 11:01:00,74.0,64.0,30.14,SSW,211,2.0,2.0,72,0.00,,,0.00,,2013-05-28 15:01:00,
2013-05-28 11:11:00,74.0,64.0,30.14,SSW,211,2.0,2.0,72,0.00,,,0.00,,2013-05-28 15:11:00,
2013-05-28 11:21:00,73.0,65.0,30.14,SSW,207,3.0,0.0,77,0.00,,,0.00,,2013-05-28 15:21:00,
2013-05-28 11:33:00,74.0,66.0,30.14,SSW,201,2.0,2.0,75,0.00,,,0.00,,2013-05-28 15:33:00,
2013-05-28 11:43:00,74.0,66.0,30.14,SSW,201,2.0,2.0,75,0.00,,,0.00,,2013-05-28 15:43:00,
2013-05-28 11:53:00,76.0,67.0,30.14,SSE,158,2.0,2.0,73,0.00,,,0.00,,2013-05-28 15:53:00,
2013-05-28 12:03:00,77.0,64.0,30.14,South,191,5.0,11.0,65,0.00,,,0.00,,2013-05-28 16:03:00,
2013-05-28 12:13:00,77.0,64.0,30.14,South,191,5.0,11.0,65,0.00,,,0.00,,2013-05-28 16:13:00,
2013-05-28 12:22:00,78.0,65.0,30.13,SSW,207,2.0,2.0,65,0.00,,,0.00,,2013-05-28 16:22:00,
2013-05-28 12:33:00,78.0,64.0,30.13,SSE,158,2.0,10.0,63,0.00,,,0.00,,2013-05-28 16:33:00,
2013-05-28 12:42:00,78.0,64.0,30.13,SSE,158,2.0,10.0,63,0.00,,,0.00,,2013-05-28 16:42:00,
2013-05-28 12:53:00,79.0,63.0,30.13,SE,134,3.0,0.0,59,0.00,,,0.00,,2013-05-28 16:53:00,
2013-05-28 13:02:00,79.0,62.0,30.12,ENE,72,1.0,4.0,57,0.00,,,0.00,,2013-05-28 17:02:00,
2013-05-28 13:12:00,79.0,62.0,30.12,ENE,72,1.0,4.0,57,0.00,,,0.00,,2013-05-28 17:12:00,
2013-05-28 13:22:00,79.0,62.0,30.12,ENE,72,1.0,4.0,57,0.00,,,0.00,,2013-05-28 17:22:00,
2013-05-28 13:32:00,80.0,63.0,30.13,NNE,13,4.0,4.0,56,0.00,,,0.00,,2013-05-28 17:32:00,
2013-05-28 13:42:00,80.0,66.0,30.13,South,177,1.0,1.0,62,0.00,,,0.00,,2013-05-28 17:42:00,
2013-05-28 13:52:00,80.0,66.0,30.13,South,177,1.0,1.0,62,0.00,,,0.00,,2013-05-28 17:52:00,
2013-05-28 14:01:00,81.0,63.0,30.13,SSE,148,2.0,4.0,55,0.00,,,0.00,,2013-05-28 18:01:00,
2013-05-28 14:11:00,81.0,63.0,30.13,SSE,148,2.0,4.0,55,0.00,,,0.00,,2013-05-28 18:11:00,
2013-05-28 14:21:00,81.0,62.0,30.12,WSW,245,5.0,5.0,52,0.00,,,0.00,,2013-05-28 18:21:00,
2013-05-28 14:32:00,81.0,65.0,30.12,ENE,68,0.0,4.0,58,0.00,,,0.00,,2013-05-28 18:32:00,
2013-05-28 14:42:00,81.0,63.0,30.12,SW,233,2.0,2.0,55,0.00,,,0.00,,2013-05-28 18:42:00,
2013-05-28 14:52:00,81.0,63.0,30.12,SW,233,2.0,2.0,55,0.00,,,0.00,,2013-05-28 18:52:00,
2013-05-28 15:01:00,82.0,64.0,30.11,NNW,335,3.0,0.0,55,0.00,,,0.00,,2013-05-28 19:01:00,
2013-05-28 15:11:00,82.0,64.0,30.11,NNW,335,3.0,0.0,55,0.00,,,0.00,,2013-05-28 19:11:00,
2013-05-28 15:21:00,82.0,64.0,30.11,South,183,4.0,4.0,54,0.00,,,0.00,,2013-05-28 19:21:00,
2013-05-28 15:32:00,80.0,63.0,30.11,SSW,197,1.0,1.0,56,0.00,,,0.00,,2013-05-28 19:32:00,
2013-05-28 15:42:00,80.0,63.0,30.11,SSW,197,1.0,1.0,56,0.00,,,0.00,,2013-05-28 19:42:00,
2013-05-28 15:52:00,82.0,65.0,30.11,SW,231,1.0,3.0,56,0.00,,,0.00,,2013-05-28 19:52:00,
2013-05-28 16:02:00,81.0,64.0,30.10,SW,222,3.0,3.0,57,0.00,,,0.00,,2013-05-28 20:02:00,
2013-05-28 16:11:00,81.0,64.0,30.10,SW,222,3.0,3.0,57,0.00,,,0.00,,2013-05-28 20:11:00,
2013-05-28 16:22:00,82.0,64.0,30.10,SSE,156,1.0,2.0,54,0.00,,,0.00,,2013-05-28 20:22:00,
2013-05-28 16:32:00,82.0,63.0,30.10,ESE,118,0.0,1.0,52,0.00,,,0.00,,2013-05-28 20:32:00,
2013-05-28 16:42:00,82.0,63.0,30.10,ESE,118,0.0,1.0,52,0.00,,,0.00,,2013-05-28 20:42:00,
2013-05-28 16:52:00,82.0,64.0,30.10,ENE,58,0.0,0.0,54,0.00,,,0.00,,2013-05-28 20:52:00,
2013-05-28 17:02:00,82.0,61.0,30.09,SE,125,4.0,4.0,50,0.00,,,0.00,,2013-05-28 21:02:00,
2013-05-28 17:11:00,83.0,63.0,30.09,SE,135,6.0,6.0,51,0.00,,,0.00,,2013-05-28 21:11:00,
2013-05-28 17:21:00,83.0,63.0,30.09,SE,135,6.0,6.0,51,0.00,,,0.00,,2013-05-28 21:21:00,
2013-05-28 17:33:00,82.0,61.0,30.09,SW,221,3.0,3.0,50,0.00,,,0.00,,2013-05-28 21:33:00,
2013-05-28 17:43:00,82.0,63.0,30.09,ESE,115,0.0,0.0,53,0.00,,,0.00,,2013-05-28 21:43:00,
2013-05-28 17:53:00,82.0,63.0,30.09,ESE,115,0.0,0.0,53,0.00,,,0.00,,2013-05-28 21:53:00,
2013-05-28 18:02:00,82.0,63.0,30.08,SE,128,3.0,0.0,52,0.00,,,0.00,,2013-05-28 22:02:00,
2013-05-28 18:12:00,81.0,62.0,30.08,SW,231,0.0,0.0,52,0.00,,,0.00,,2013-05-28 22:12:00,
2013-05-28 18:22:00,81.0,62.0,30.08,SW,231,0.0,0.0,52,0.00,,,0.00,,2013-05-28 22:22:00,
2013-05-28 18:33:00,81.0,62.0,30.08,South,183,3.0,3.0,53,0.00,,,0.00,,2013-05-28 22:33:00,
2013-05-28 18:42:00,80.0,61.0,30.07,SSW,193,1.0,3.0,53,0.00,,,0.00,,2013-05-28 22:42:00,
2013-05-28 18:52:00,80.0,61.0,30.07,SSW,193,1.0,3.0,53,0.00,,,0.00,,2013-05-28 22:52:00,
2013-05-28 19:02:00,80.0,61.0,30.06,SSE,165,3.0,3.0,53,0.00,,,0.00,,2013-05-28 23:02:00,
2013-05-28 19:11:00,80.0,61.0,30.06,ENE,72,1.0,2.0,53,0.00,,,0.00,,2013-05-28 23:11:00,
2013-05-28 19:22:00,80.0,61.0,30.06,ENE,72,1.0,2.0,53,0.00,,,0.00,,2013-05-28 23:22:00,
2013-05-28 19:32:00,80.0,62.0,30.06,NE,56,2.0,0.0,55,0.00,,,0.00,,2013-05-28 23:32:00,
2013-05-28 19:42:00,80.0,62.0,30.06,NE,56,2.0,0.0,55,0.00,,,0.00,,2013-05-28 23:42:00,
2013-05-28 19:52:00,79.0,61.0,30.06,SSW,212,3.0,3.0,54,0.00,,,0.00,,2013-05-28 23:52:00,
2013-05-28 20:02:00,78.0,61.0,30.06,SSW,208,0.0,0.0,56,0.00,,,0.00,,2013-05-29 00:02:00,
2013-05-28 20:11:00,78.0,61.0,30.06,SSW,208,0.0,0.0,56,0.00,,,0.00,,2013-05-29 00:11:00,
2013-05-28 20:21:00,77.0,62.0,30.06,SW,225,2.0,2.0,60,0.00,,,0.00,,2013-05-29 00:21:00,
2013-05-28 20:32:00,76.0,62.0,30.06,SSW,212,1.0,0.0,62,0.00,,,0.00,,2013-05-29 00:32:00,
2013-05-28 20:42:00,76.0,62.0,30.06,SSW,212,1.0,0.0,62,0.00,,,0.00,,2013-05-29 00:42:00,
2013-05-28 20:52:00,76.0,62.0,30.06,SSW,207,2.0,0.0,63,0.00,,,0.00,,2013-05-29 00:52:00,
2013-05-28 21:01:00,75.0,62.0,30.06,SSW,208,1.0,0.0,65,0.00,,,0.00,,2013-05-29 01:01:00,
2013-05-28 21:11:00,74.0,62.0,30.06,SW,228,1.0,1.0,67,0.00,,,0.00,,2013-05-29 01:11:00,
2013-05-28 21:22:00,74.0,62.0,30.06,SW,228,1.0,1.0,67,0.00,,,0.00,,2013-05-29 01:22:00,
2013-05-28 21:32:00,74.0,63.0,30.06,SSW,200,0.0,0.0,68,0.00,,,0.00,,2013-05-29 01:32:00,
2013-05-28 21:42:00,74.0,63.0,30.06,SSW,200,0.0,0.0,68,0.00,,,0.00,,2013-05-29 01:42:00,
2013-05-28 21:52:00,73.0,61.0,30.07,SSW,201,0.0,0.0,67,0.00,,,0.00,,2013-05-29 01:52:00,
2013-05-28 22:02:00,72.0,61.0,30.08,South,177,0.0,0.0,68,0.00,,,0.00,,2013-05-29 02:02:00,
2013-05-28 22:12:00,72.0,62.0,30.08,South,177,0.0,0.0,70,0.00,,,0.00,,2013-05-29 02:12:00,
2013-05-28 22:21:00,72.0,62.0,30.08,South,177,0.0,0.0,70,0.00,,,0.00,,2013-05-29 02:21:00,
2013-05-28 22:32:00,71.0,61.0,30.09,SSW,207,0.0,0.0,71,0.00,,,0.00,,2013-05-29 02:32:00,
2013-05-28 22:42:00,71.0,61.0,30.09,SSW,207,0.0,0.0,70,0.00,,,0.00,,2013-05-29 02:42:00,
2013-05-28 22:52:00,71.0,61.0,30.09,SSW,207,0.0,0.0,70,0.00,,,0.00,,2013-05-29 02:52:00,
2013-05-28 23:02:00,71.0,61.0,30.09,SSW,207,0.0,0.0,70,0.00,,,0.00,,2013-05-29 03:02:00,
2013-05-28 23:12:00,71.0,61.0,30.09,SSW,207,0.0,0.0,70,0.00,,,0.00,,2013-05-29 03:12:00,
2013-05-28 23:21:00,70.0,60.0,30.09,SW,221,0.0,0.0,71,0.00,,,0.00,,2013-05-29 03:21:00,
2013-05-28 23:33:00,70.0,60.0,30.09,SSW,200,0.0,0.0,71,0.00,,,0.00,,2013-05-29 03:33:00,
2013-05-28 23:43:00,70.0,60.0,30.09,SSW,200,0.0,0.0,71,0.00,,,0.00,,2013-05-29 03:43:00,
2013-05-28 23:53:00,69.0,59.0,30.08,SSW,200,0.0,0.0,71,0.00,,,0.00,,2013-05-29 03:53:00,